#timestamp,LO_Frequency,Hit,StdDev 
1598132135.7,286047009.2,P
1598132155.6,286047009.1,P
1598132175.4,286047008.5,P
1598132195.2,286047008.0,Y
1598132215.1,286046999.2,P
1598132216.0,286046999.2,N
1598132235.8,286046997.4,N
1598132255.7,286046994.9,N
1598132275.5,286046997.9,N
1598132295.3,286046998.0,N
1598132315.2,286046998.0,N
1598132335.0,286046997.7,N
1598132335.9,286046997.7,N
1598132355.8,286046997.2,N
1598132375.6,286046996.6,N
1598132395.4,286046997.3,N
1598132415.3,286046997.8,N
1598132435.1,286046999.6,N
1598132455.8,286046997.7,N
1598132475.7,286046997.9,N
1598132495.5,286046995.9,N
1598132515.4,286046996.0,N
1598132535.2,286046995.6,N
1598132555.0,286046995.2,N
1598132555.9,286046995.2,N
1598132575.8,286046996.4,N
1598132595.6,286046993.9,N
1598132615.5,286046996.3,N
1598132635.3,286046996.2,N
1598132655.1,286046993.9,N
1598132675.9,286046993.8,N
1598132695.7,286046995.2,N
1598132715.5,286046997.4,N
1598132735.4,286046999.5,N
1598132755.2,286046996.7,N
1598132775.1,286046996.5,N
1598132776.0,286046996.5,N
1598132795.8,286046999.3,N
1598132815.6,286046998.1,N
1598132835.5,286047001.2,N
1598132855.3,286046999.5,N
1598132875.1,286046996.5,N
1598132895.9,286046999.6,N
1598132915.7,286046998.1,N
1598132935.6,286047000.3,N
1598132955.4,286046998.1,N
1598132975.2,286046999.1,N
1598132995.1,286046996.5,N
1598132996.0,286046996.5,N
1598133015.8,286046997.0,N
1598133035.6,286046998.7,N
1598133055.5,286046999.6,N
1598133105.3,286046999.2,E
1598133115.3,286046998.3,N
1598133135.1,286046998.8,P
1598133155.8,286046998.7,P
1598133175.7,286046996.9,Y
1598133195.5,286046998.4,P
1598133215.4,286046998.4,P
1598133235.2,286046998.4,P
1598133255.0,286046998.6,Y
1598133255.9,286046998.6,P
1598133275.8,286046999.8,P
1598133295.6,286047002.6,P
1598133315.4,286046999.7,N
1598133335.3,286047002.8,N
1598133355.1,286047001.6,N
1598133375.9,286047003.5,N
1598133395.7,286047003.6,N
1598133415.5,286047004.0,N
1598133435.4,286047002.0,N
1598133455.2,286047004.2,N
1598133475.0,286047003.3,N
1598133475.9,286047003.3,N
1598133495.8,286047001.9,N
1598133515.6,286047004.1,N
1598133535.5,286047005.9,Y
1598133555.3,286047001.3,P
1598133575.1,286047003.8,P
1598133595.9,286047003.3,P
